Regional Weather Roundup
Issued by NWS

Home | Current Version | Previous Version | Text Only | Print | Product List | Glossary Off
Versions: 1 2 3 4 5 6 7 8 9 10 11 12 13 14 15 16 17 18 19 20 21 22 23 24 25 26 27 28 29 30 31 32 33 34 35 36 37 38 39 40 41 42 43 44 45 46 47 48 49 50

445
ASUS44 KJAN 301110
RWRMS

MISSISSIPPI HOURLY WEATHER ROUNDUP
NATIONAL WEATHER SERVICE JACKSON MS
500 AM CST FRI JAN 30 2015

NOTE: "FAIR: INDICATES FEW OR NO CLOUDS BELOW 12,000 FEET WITH NO
SIGNIFICANT WEATHER AND/OR OBSTRUCTIONS TO VISIBILITY.

MSZ001>002-007>008-010>013-018>021-025>028-034>036-301200-
NORTHWEST MISSISSIPPI

CITY           SKY/WX    TMP DP  RH WIND       PRES   REMARKS
CLARKSDALE     FAIR      32  32 100 NW7       30.47R WCI  26
CLEVELAND      FAIR      36  33  88 N7        30.44R WCI  30
GREENWOOD      CLEAR     36  30  79 N3        30.42R
GREENVILLE     CLEAR     35  30  82 N8        30.44R WCI  29
GRENADA        FAIR      32  30  93 CALM      30.43S
OLIVE BRANCH   MOCLDY    37  32  81 N9G20     30.42S WCI  31
OXFORD         FAIR      28  25  86 CALM      30.42S
TUNICA         SUNNY     32  30  93 N10       30.46R WCI  24
$$

MSZ003>006-009-014>017-022>024-029>033-037>039-301200-
NORTHEAST MISSISSIPPI

CITY           SKY/WX    TMP DP  RH WIND       PRES   REMARKS
COLUMBUS AFB   PTCLDY    36  28  75 NW7       30.39R WCI  30
CORINTH        CLOUDY    41  28  60 N10G17    30.39S
GOLDN TRIANGLE CLEAR     37  28  70 NW6       30.38R WCI  33
STARKVILLE     FAIR      37  30  75 CALM      30.40R
TUPELO         CLEAR     37  27  67 N5        30.39S WCI  33
$$

MSZ040-058-301200-
CENTRAL MISSISSIPPI

CITY           SKY/WX    TMP DP  RH WIND       PRES   REMARKS
JACKSON INTL   CLEAR     41  33  73 N12       30.38R
JACKSON HAWKNS CLEAR     40  32  73 N6        30.39R
MERIDIAN KEY   PTCLDY    40  30  67 N12       30.36R WCI  33
MERIDIAN NAS   PTCLDY    39  30  70 N7        30.36S WCI  34
RAYMOND        FAIR      39  34  81 MISG      30.40R
VICKSBURG      MOCLDY    41  32  70 N14       30.42R
$$

MSZ059>079-301200-
SOUTH MISSISSIPPI

CITY           SKY/WX    TMP DP  RH WIND       PRES   REMARKS
BROOKHAVEN     FAIR      41  34  75 N8        30.37R
HATTIESBURG    MOCLDY    47  39  74 N8        30.34R
MCCOMB         PTCLDY    43  34  70 N9        30.34S
NATCHEZ        PTCLDY    43  32  65 N10       30.39R
PINE BELT      MOCLDY    45  36  70 N8        30.34R
$$

MSZ080>082-301200-
COASTAL MISSISSIPPI

CITY           SKY/WX    TMP DP  RH WIND       PRES   REMARKS
BILOXI         PTCLDY    52  44  72 VRB5      30.28R
PASCAGOULA     PTCLDY    52  43  71 N14       30.27R
GULFPORT       PTCLDY    52  41  66 N13       30.28R
$$



USA.gov is the U.S. government's official web portal to all federal, state and local government web resources and services.